{"data":{"norad_id":81617,"epoch":"2026-05-23T18:07:43.114368Z","epoch_age_seconds":178770,"freshness":"STALE","line1":"1 81617U          26143.75536012  .00000245  00000+0  17050-2 0  9993","line2":"2 81617 101.2753 316.2473 0031786 273.0982  86.6458 12.57663007573476","mean_motion":12.57663007,"eccentricity":0.0031786,"inclination_deg":101.2753,"raan_deg":316.2473,"arg_perigee_deg":273.0982,"mean_anomaly_deg":86.6458,"bstar":0.001705,"rev_number":57347,"period_min":114.49808032717,"perigee_km":1407.7782086367,"apogee_km":1457.4326604416,"semimajor_km":7810.7424345392,"source":"CELESTRAK","updated_at":"2026-05-25T13:38:11.079685Z"}}